Regional Weather Roundup
Issued by NWS Midland/Odessa, TX

Home | Current Version | Previous Version | Text Only | Print | Product List | Glossary On
Versions: 1 2 3 4 5 6 7 8 9 10 11 12 13 14 15 16 17 18 19 20 21 22 23 24 25 26 27 28 29 30 31 32 33 34 35 36 37 38 39 40 41 42 43 44 45 46 47 48 49 50
415
ASUS44 KMAF 240101
RWRMAF
MIDLAND AREA WEATHER ROUNDUP
NATIONAL WEATHER SERVICE MIDLAND TX
800 PM CDT THU MAR 23 2017

...IN SOUTHWEST TEXAS AND SOUTHEAST NEW MEXICO...

CITY           SKY/WX    TMP DP  RH WIND       PRES   REMARKS
ALPINE         PTCLDY    83   6   5 SW13G21   29.81R
ANDREWS        FAIR      73  52  48 S28G48    29.63R
ARTESIA        CLEAR     68  27  21 W26G40    29.71R
BIG SPRING     CLOUDY    74  52  46 SE32G47   29.66F VSB 1
CARLSBAD       CLOUDY    69  26  20 MISG      29.64R
DRYDEN           N/A     77  55  46 SE31G40   29.69F
FORT STOCKTON  CLEAR     74  55  51 SE29G41   29.66S
GUAD PASS      CLOUDY    60  20  21 W47G63    29.80R HAZE
HOBBS          MOCLDY    73  30  20 W26G37    29.72R HAZE
MARFA          MOCLDY    81 -10   3 SW29G40   29.80R
MIDLAND AIRPK  CLOUDY    76  52  42 SE31G41   29.65S HAZE
MIDLAND INTL   CLEAR     75  52  44 S35G46    29.63F
ODESSA           N/A     74  52  46 S33G52    29.64F
PECOS          CLOUDY    79  32  18 W31G41    29.65R HAZE
PRESIDIO         N/A     92  -8   2 SW26G36   29.69R
SEMINOLE       CLEAR     74  51  44 S35G41    29.68R
SNYDER         CLEAR     75  51  42 SE35G43   29.68F
WINK             N/A    N/A N/A N/A MISG      29.67R
$$
...OTHER STATIONS IN TEXAS...

CITY           SKY/WX    TMP DP  RH WIND       PRES   REMARKS
ABILENE        CLEAR     75  46  35 S31G45    29.74S
AMARILLO       CLOUDY    71  50  47 SE30G46   29.57S
AUSTIN         MOCLDY    75  49  39 S16G24    29.95R
BROWNSVILLE    CLEAR     74  65  73 SE18G25   29.97R
CORPUS CHRISTI MOCLDY    73  66  78 SE23G31   29.97R
DALLAS FTW     PTCLDY    80  46  30 S25G43    29.85S
DEL RIO        PTCLDY    80  54  40 SE15G23   29.79R
EL PASO        FAIR      63  13  14 W32G45    29.91R
HOUSTON INT    MOCLDY    72  58  61 S17G25    30.04F
LUBBOCK        PTCLDY    74  49  41 S35G53    29.58F
SAN ANGELO     CLEAR     76  50  40 S20G35    29.75R
SAN ANTONIO    MOCLDY    74  52  46 SE24G32   29.94R
WACO           CLEAR     76  47  35 S23G30    29.91S
WICHITA FALLS  NOT AVBL
$$
...OTHER LOCATIONS IN NEW MEXICO...

CITY           SKY/WX    TMP DP  RH WIND       PRES   REMARKS
ALAMAGORDO     CLOUDY    59  16  18 W26G32    29.89R HAZE
ALBUQUERQUE    MOCLDY    48  26  42 W21G35    29.82R
CANNON AFB     NOT AVBL
CLOVIS         CLOUDY    64  34  32 W37G47    29.61R
HOLLOMAN AFB   NOT AVBL
ROSWELL        CLOUDY    64  23  21 W37G46      N/A
RUIDOSO        CLOUDY    46  12  25 W30G49    29.86R WCI  37
SANTA FE       PTCLDY    39  37  92 SW9       29.79R WCI  33
TRUTH OR CONSE PTCLDY    52  20  28 W16G24    29.91R
TUCUMCARI      CLOUDY    62  33  33 W49G60    29.56R
$$




USA.gov is the U.S. government's official web portal to all federal, state and local government web resources and services.